Hourly Data Report for October 24, 2016

All times are specified in Local Standard Time (LST). Add 1 hour to adjust for Daylight Saving Time where and when it is observed.

BATHURST A
NEW BRUNSWICK

47°37'47.000" N
65°44'20.000" W
58.80 m
8100505
71574
ZBF

Download Data

Hourly Data (October 2016)
Hourly Data Report for October 24, 2016
Temp Definition
°C
Dew Point Temp Definition
°C
Rel Hum Definition
%
Wind Dir Definition
10's deg

Wind Spd Definition
km/h
Visibility Definition
km
Stn Press Definition
kPa
Hmdx Definition


Wind Chill Definition


Weather Definition


TIME
00:00 Legend Double Dagger 4.9 -0.1 70 23 17 24.1 98.38     LegendNANA
01:00 Legend Double Dagger 4.5 -0.1 72 25 18 11.3 98.42     Rain
02:00 Legend Double Dagger 4.2 -0.2 73 25 22 11.3 98.45     Rain
03:00 Legend Double Dagger 3.8 0.1 77 25 17 11.3 98.52     Rain
04:00 Legend Double Dagger 4.0 -0.6 72 26 22 11.3 98.58     Rain
05:00 Legend Double Dagger 3.7 -0.9 72 24 26 24.1 98.65     Cloudy
06:00 Legend Double Dagger 3.6 -1.6 69 24 26 24.1 98.75     LegendNANA
07:00 Legend Double Dagger 3.3 -2.5 66 25 29 24.1 98.81     LegendNANA
08:00 Legend Double Dagger 4.0 -2.8 61 25 35 24.1 98.89     Mainly Clear
09:00 Legend Double Dagger 4.6 -3.4 56 24 36 24.1 98.94     LegendNANA
10:00 Legend Double Dagger 5.7 -3.7 51 27 36 24.1 98.96     LegendNANA
11:00 Legend Double Dagger 6.3 -3.6 49 24 36 24.1 98.97     Mainly Clear
12:00 Legend Double Dagger 5.8 -3.8 50 25 37 24.1 98.97     LegendNANA
13:00 Legend Double Dagger 5.7 -3.4 52 25 28 24.1 99.01     LegendNANA
14:00 Legend Double Dagger 6.0 -3.1 52 25 32 24.1 99.03     Mostly Cloudy
15:00 Legend Double Dagger 6.0 -2.6 54 26 25 24.1 99.06     LegendNANA
16:00 Legend Double Dagger 4.9 -1.3 64 25 21 24.1 99.13     LegendNANA
17:00 Legend Double Dagger 4.0 -0.2 74 25 19 24.1 99.22     Rain Showers
18:00 Legend Double Dagger 3.9 -0.5 73 25 23 24.1 99.27     Rain Showers
19:00 Legend Double Dagger 3.9 -0.5 73 27 24 11.3 99.30     Rain Showers
20:00 Legend Double Dagger 3.8 -0.8 72 26 26 24.1 99.32     Cloudy
21:00 Legend Double Dagger 3.5 -0.9 73 26 21 24.1 99.39     LegendNANA
22:00 Legend Double Dagger 3.6 -1.0 72 27 23 24.1 99.43     LegendNANA
23:00 Legend Double Dagger 3.5 -0.9 73 27 12 24.1 99.44     Cloudy

Notes on Data Quality.

Legend

  • E = Estimated
  • M = Missing
  • NA = Not Available
  • ‡ = Partner data that is not subject to review by the National Climate Archives
Date modified: